Terminal Aerodrome Forecast
Issued by NWS

Home | Current Version | Previous Version | Graphics & Text | Print | Product List | Glossary Off
Versions: 1 2 3 4 5 6 7 8 9 10 11 12 13 14 15 16 17 18 19 20 21 22 23 24 25 26 27 28 29 30 31 32 33 34 35 36

202
FTUS43 KDDC 101720
TAFHYS
TAF
KHYS 101720Z 1018/1118 29010G22KT P6SM SKC
     FM110000 32007KT P6SM SKC
     FM111200 01004KT 6SM BR BKN008=

USA.gov is the U.S. government's official web portal to all federal, state and local government web resources and services.